Regional Weather Roundup
Issued by NWS

Home | Current Version | Previous Version | Graphics & Text | Print | Product List | Glossary On
Versions: 1 2 3 4 5 6 7 8 9 10 11 12 13 14 15 16 17 18 19 20 21 22 23 24 25 26 27 28 29 30 31 32 33 34 35 36 37 38 39 40 41 42 43 44 45 46 47 48 49 50
000
ASUS43 KTOP 021359
RWRKS

WEATHER ROUNDUP FOR KANSAS
NATIONAL WEATHER SERVICE GOODLAND KS
900 AM CDT TUE JUN 02 2015

NOTE:  "FAIR" INDICATES FEW OR NO CLOUDS BELOW 12,000 FEET WITH NO
SIGNIFICANT WEATHER AND/OR OBSTRUCTIONS TO VISIBILITY.

KSZ001>006-013>018-027>032-041>047-021500-
NORTHWEST KANSAS

CITY           SKY/WX    TMP DP  RH WIND       PRES   REMARKS
GOODLAND       SUNNY     67  62  84 S22       29.93S
HAYS           CLOUDY    63  55  77 E12       29.97S
HILL CITY      PTSUNNY   66  61  84 S14G25    29.92F
RUSSELL        CLOUDY    66  60  81 SE15      29.96F
$$

KSZ061>065-074>080-084>089-021500-
SOUTHWEST KANSAS

CITY           SKY/WX    TMP DP  RH WIND       PRES   REMARKS
DODGE CITY     CLOUDY    68  63  84 S15       29.96S
ELKHART          N/A     71  53  52 S13         N/A
GARDEN CITY    SUNNY     67  62  84 S9        29.95R
GREAT BEND     PTSUNNY   68  61  77 S13       29.97F
LIBERAL        SUNNY     70  63  78 S16G22    29.97S
$$

KSZ066>073-081>083-090>101-021500-
SOUTHEAST KANSAS

CITY           SKY/WX    TMP DP  RH WIND       PRES   REMARKS
CHANUTE        MOSUNNY   63  58  83 SE10      30.07F
COFFEYVILLE    CLOUDY    67  61  81 SE7       30.06F
HUTCHINSON     PTSUNNY   69  59  70 SE16G24   29.99F
MEDICINE LODGE   N/A     68  62  81 SE9G20    29.99R
NEWTON         PTSUNNY   66  55  68 SE13G20   30.04F
PARSONS        PTSUNNY   65  60  84 SE6       30.08S
WICHITA INTL   PTSUNNY   71  60  68 S14       30.02R
WICHITA JABRA  MOSUNNY   68  59  73 SE14      30.02S
WINFIELD       SUNNY     70  61  73 SE13      30.04R
$$

KSZ007>012-019>026-033>040-048>060-102>105-021500-
NORTHEAST KANSAS

CITY           SKY/WX    TMP DP  RH WIND       PRES   REMARKS
EMPORIA        MOSUNNY   62  57  83 SE14      30.05S
LAWRENCE       CLOUDY    61  55  81 SE12      30.10S
MANHATTAN      CLOUDY    62  57  83 SE9       30.04F
OLATHE IND     CLOUDY    60  55  83 SE12      30.10F
OLATHE EXE     CLOUDY    60  55  83 SE10      30.10S
SALINA         CLOUDY    66  58  75 SE15      29.99F
TOPEKA BILLARD PTSUNNY   61  56  83 SE13      30.08S
TOPEKA FORBES  CLOUDY    61  55  81 SE12      30.07F
$$


USA.gov is the U.S. government's official web portal to all federal, state and local government web resources and services.